Time,TemperatureF,DewpointF,PressureIn,WindDirection,WindDirectionDegrees,WindSpeedMPH,WindSpeedGustMPH,Humidity,HourlyPrecipIn,Conditions,Clouds,dailyrainin,SoftwareType,DateUTC
2013-06-15 00:13:00,52.1,52.0,29.85,North,350,2.0,7.0,98,0.00,,,0.00,weatherlink.com 1.10,2013-06-15 04:13:00,
2013-06-15 00:28:00,52.2,52.0,29.86,North,360,7.0,11.0,98,0.00,,,0.00,weatherlink.com 1.10,2013-06-15 04:28:00,
2013-06-15 00:43:00,52.4,52.0,29.86,WNW,300,6.0,11.0,98,0.00,,,0.00,weatherlink.com 1.10,2013-06-15 04:43:00,
2013-06-15 00:58:00,52.4,52.0,29.85,North,360,9.0,12.0,98,0.00,,,0.00,weatherlink.com 1.10,2013-06-15 04:58:00,
2013-06-15 01:13:00,52.3,52.0,29.86,NE,45,2.0,9.0,98,0.00,,,0.00,weatherlink.com 1.10,2013-06-15 05:13:00,
2013-06-15 01:28:00,52.3,52.0,29.86,NNE,17,3.0,9.0,97,0.00,,,0.00,weatherlink.com 1.10,2013-06-15 05:28:00,
2013-06-15 01:43:00,52.4,52.0,29.86,NE,55,3.0,9.0,97,0.00,,,0.00,weatherlink.com 1.10,2013-06-15 05:43:00,
2013-06-15 01:58:00,52.7,52.0,29.86,North,5,6.0,10.0,96,0.00,,,0.00,weatherlink.com 1.10,2013-06-15 05:58:00,
2013-06-15 02:14:00,52.7,51.0,29.86,North,5,8.0,11.0,95,0.00,,,0.00,weatherlink.com 1.10,2013-06-15 06:14:00,
2013-06-15 02:29:00,52.3,51.0,29.87,NNE,14,5.0,10.0,95,0.00,,,0.00,weatherlink.com 1.10,2013-06-15 06:29:00,
2013-06-15 02:44:00,51.5,50.0,29.87,NE,53,3.0,9.0,96,0.00,,,0.00,weatherlink.com 1.10,2013-06-15 06:44:00,
2013-06-15 02:59:00,51.0,50.0,29.87,NNW,341,10.0,11.0,96,0.00,,,0.00,weatherlink.com 1.10,2013-06-15 06:59:00,
2013-06-15 03:14:00,51.0,50.0,29.87,North,360,7.0,9.0,96,0.01,,,0.01,weatherlink.com 1.10,2013-06-15 07:14:00,
2013-06-15 03:29:00,50.8,50.0,29.87,North,9,5.0,10.0,96,0.01,,,0.01,weatherlink.com 1.10,2013-06-15 07:29:00,
2013-06-15 03:44:00,50.8,50.0,29.86,ENE,57,4.0,8.0,95,0.01,,,0.01,weatherlink.com 1.10,2013-06-15 07:44:00,
2013-06-15 03:59:00,50.4,49.0,29.87,NNW,339,3.0,11.0,95,0.01,,,0.01,weatherlink.com 1.10,2013-06-15 07:59:00,
2013-06-15 04:14:00,50.2,49.0,29.88,West,275,2.0,8.0,95,0.00,,,0.01,weatherlink.com 1.10,2013-06-15 08:14:00,
2013-06-15 04:29:00,50.0,48.0,29.87,NNW,336,3.0,5.0,94,0.00,,,0.01,weatherlink.com 1.10,2013-06-15 08:29:00,
2013-06-15 04:44:00,50.0,49.0,29.87,NW,304,1.0,7.0,95,0.00,,,0.01,weatherlink.com 1.10,2013-06-15 08:44:00,
2013-06-15 04:59:00,49.5,48.0,29.88,North,360,1.0,7.0,95,0.00,,,0.01,weatherlink.com 1.10,2013-06-15 08:59:00,
2013-06-15 05:14:00,48.9,48.0,29.88,NNE,15,2.0,5.0,95,0.00,,,0.01,weatherlink.com 1.10,2013-06-15 09:14:00,
2013-06-15 05:29:00,48.7,48.0,29.88,North,10,4.0,10.0,96,0.00,,,0.01,weatherlink.com 1.10,2013-06-15 09:29:00,
2013-06-15 05:44:00,48.6,48.0,29.88,North,10,4.0,6.0,96,0.00,,,0.01,weatherlink.com 1.10,2013-06-15 09:44:00,
2013-06-15 05:59:00,48.6,48.0,29.88,NNW,334,1.0,9.0,96,0.00,,,0.01,weatherlink.com 1.10,2013-06-15 09:59:00,
2013-06-15 06:14:00,48.9,48.0,29.89,North,355,1.0,8.0,95,0.00,,,0.01,weatherlink.com 1.10,2013-06-15 10:14:00,
2013-06-15 06:29:00,49.5,48.0,29.89,North,350,2.0,9.0,94,0.00,,,0.01,weatherlink.com 1.10,2013-06-15 10:29:00,
2013-06-15 06:44:00,50.0,48.0,29.89,NNE,22,5.0,8.0,93,0.00,,,0.01,weatherlink.com 1.10,2013-06-15 10:44:00,
2013-06-15 06:59:00,50.1,48.0,29.91,North,355,2.0,8.0,93,0.00,,,0.01,weatherlink.com 1.10,2013-06-15 10:59:00,
2013-06-15 07:14:00,50.2,48.0,29.91,NW,317,0.0,7.0,93,0.00,,,0.01,weatherlink.com 1.10,2013-06-15 11:14:00,
2013-06-15 07:29:00,50.7,49.0,29.90,NNE,26,1.0,7.0,93,0.00,,,0.01,weatherlink.com 1.10,2013-06-15 11:29:00,
2013-06-15 07:44:00,52.0,49.0,29.91,NW,306,6.0,9.0,89,0.00,,,0.01,weatherlink.com 1.10,2013-06-15 11:44:00,
2013-06-15 07:59:00,53.4,49.0,29.91,NNW,334,4.0,10.0,84,0.00,,,0.01,weatherlink.com 1.10,2013-06-15 11:59:00,
2013-06-15 08:14:00,54.4,50.0,29.93,NNW,348,6.0,9.0,84,0.00,,,0.01,weatherlink.com 1.10,2013-06-15 12:14:00,
2013-06-15 08:29:00,55.2,50.0,29.93,North,360,4.0,9.0,81,0.00,,,0.01,weatherlink.com 1.10,2013-06-15 12:29:00,
2013-06-15 08:44:00,56.3,50.0,29.93,NW,321,2.0,7.0,79,0.00,,,0.01,weatherlink.com 1.10,2013-06-15 12:44:00,
2013-06-15 08:59:00,57.1,50.0,29.94,North,5,4.0,7.0,78,0.00,,,0.01,weatherlink.com 1.10,2013-06-15 12:59:00,
2013-06-15 09:14:00,58.1,51.0,29.94,WNW,284,2.0,8.0,76,0.00,,,0.01,weatherlink.com 1.10,2013-06-15 13:14:00,
2013-06-15 09:30:00,59.0,50.0,29.94,NNE,31,4.0,7.0,71,0.00,,,0.01,weatherlink.com 1.10,2013-06-15 13:30:00,
2013-06-15 09:45:00,60.0,50.0,29.93,NW,307,3.0,6.0,69,0.00,,,0.01,weatherlink.com 1.10,2013-06-15 13:45:00,
2013-06-15 10:00:00,60.9,49.0,29.93,NNW,347,4.0,8.0,64,0.00,,,0.01,weatherlink.com 1.10,2013-06-15 14:00:00,
2013-06-15 10:15:00,61.5,48.0,29.92,NE,34,3.0,6.0,62,0.00,,,0.01,weatherlink.com 1.10,2013-06-15 14:15:00,
2013-06-15 10:30:00,61.9,47.0,29.92,NNW,328,4.0,8.0,58,0.00,,,0.01,weatherlink.com 1.10,2013-06-15 14:30:00,
2013-06-15 10:45:00,62.3,45.0,29.92,West,278,3.0,10.0,53,0.00,,,0.01,weatherlink.com 1.10,2013-06-15 14:45:00,
2013-06-15 11:00:00,62.3,44.0,29.93,North,10,8.0,13.0,52,0.00,,,0.01,weatherlink.com 1.10,2013-06-15 15:00:00,
2013-06-15 11:15:00,62.6,44.0,29.93,NNE,33,4.0,15.0,51,0.00,,,0.01,weatherlink.com 1.10,2013-06-15 15:15:00,
2013-06-15 11:30:00,62.6,45.0,29.93,North,351,4.0,15.0,52,0.00,,,0.01,weatherlink.com 1.10,2013-06-15 15:30:00,
2013-06-15 11:45:00,63.2,44.0,29.93,North,11,6.0,15.0,49,0.00,,,0.01,weatherlink.com 1.10,2013-06-15 15:45:00,
2013-06-15 12:00:00,63.1,44.0,29.92,North,5,6.0,18.0,50,0.00,,,0.01,weatherlink.com 1.10,2013-06-15 16:00:00,
2013-06-15 12:15:00,63.6,44.0,29.92,North,5,11.0,18.0,50,0.00,,,0.01,weatherlink.com 1.10,2013-06-15 16:15:00,
2013-06-15 12:30:00,64.3,45.0,29.91,NNE,28,10.0,18.0,49,0.00,,,0.01,weatherlink.com 1.10,2013-06-15 16:30:00,
2013-06-15 12:45:00,64.2,44.0,29.91,NNW,327,5.0,14.0,49,0.00,,,0.01,weatherlink.com 1.10,2013-06-15 16:45:00,
2013-06-15 13:00:00,65.1,46.0,29.91,North,360,7.0,10.0,51,0.00,,,0.01,weatherlink.com 1.10,2013-06-15 17:00:00,
2013-06-15 13:15:00,65.2,44.0,29.91,NNE,22,2.0,17.0,46,0.00,,,0.01,weatherlink.com 1.10,2013-06-15 17:15:00,
2013-06-15 13:30:00,65.5,45.0,29.90,NNE,13,8.0,12.0,47,0.00,,,0.01,weatherlink.com 1.10,2013-06-15 17:30:00,
2013-06-15 13:45:00,65.6,45.0,29.90,NW,319,6.0,12.0,48,0.00,,,0.01,weatherlink.com 1.10,2013-06-15 17:45:00,
2013-06-15 14:00:00,65.9,47.0,29.89,NNE,13,6.0,14.0,51,0.00,,,0.01,weatherlink.com 1.10,2013-06-15 18:00:00,
2013-06-15 14:15:00,65.7,46.0,29.88,North,360,10.0,12.0,50,0.00,,,0.01,weatherlink.com 1.10,2013-06-15 18:15:00,
2013-06-15 14:30:00,66.4,46.0,29.89,SW,234,2.0,16.0,49,0.00,,,0.01,weatherlink.com 1.10,2013-06-15 18:30:00,
2013-06-15 14:45:00,66.7,45.0,29.89,ENE,64,3.0,12.0,46,0.00,,,0.01,weatherlink.com 1.10,2013-06-15 18:45:00,
2013-06-15 15:00:00,67.1,46.0,29.88,North,5,9.0,11.0,47,0.00,,,0.01,weatherlink.com 1.10,2013-06-15 19:00:00,
2013-06-15 15:15:00,67.3,47.0,29.87,NW,324,5.0,17.0,49,0.00,,,0.01,weatherlink.com 1.10,2013-06-15 19:15:00,
2013-06-15 15:30:00,67.6,46.0,29.87,NNE,17,4.0,10.0,46,0.00,,,0.01,weatherlink.com 1.10,2013-06-15 19:30:00,
2013-06-15 15:45:00,67.9,46.0,29.87,NW,326,7.0,10.0,46,0.00,,,0.01,weatherlink.com 1.10,2013-06-15 19:45:00,
2013-06-15 16:00:00,67.9,45.0,29.87,North,355,7.0,15.0,44,0.00,,,0.01,weatherlink.com 1.10,2013-06-15 20:00:00,
2013-06-15 16:15:00,67.8,47.0,29.86,SE,144,5.0,13.0,47,0.00,,,0.01,weatherlink.com 1.10,2013-06-15 20:15:00,
2013-06-15 16:30:00,68.0,46.0,29.86,NW,323,3.0,15.0,45,0.00,,,0.01,weatherlink.com 1.10,2013-06-15 20:30:00,
2013-06-15 16:45:00,66.9,46.0,29.86,NNE,26,6.0,15.0,47,0.00,,,0.01,weatherlink.com 1.10,2013-06-15 20:45:00,
2013-06-15 17:01:00,68.0,46.0,29.86,NNW,340,4.0,9.0,46,0.00,,,0.01,weatherlink.com 1.10,2013-06-15 21:01:00,
2013-06-15 17:16:00,67.9,47.0,29.86,NE,40,3.0,17.0,47,0.00,,,0.01,weatherlink.com 1.10,2013-06-15 21:16:00,
2013-06-15 17:31:00,67.8,46.0,29.86,NNE,23,9.0,16.0,45,0.00,,,0.01,weatherlink.com 1.10,2013-06-15 21:31:00,
2013-06-15 17:46:00,67.4,45.0,29.86,North,355,2.0,16.0,44,0.00,,,0.01,weatherlink.com 1.10,2013-06-15 21:46:00,
2013-06-15 18:01:00,67.8,46.0,29.86,South,179,2.0,11.0,45,0.00,,,0.01,weatherlink.com 1.10,2013-06-15 22:01:00,
2013-06-15 18:16:00,67.7,47.0,29.86,NNE,27,1.0,11.0,48,0.00,,,0.01,weatherlink.com 1.10,2013-06-15 22:16:00,
2013-06-15 18:31:00,67.7,47.0,29.86,NE,44,1.0,8.0,47,0.00,,,0.01,weatherlink.com 1.10,2013-06-15 22:31:00,
2013-06-15 18:46:00,67.2,46.0,29.86,West,275,2.0,4.0,46,0.00,,,0.01,weatherlink.com 1.10,2013-06-15 22:46:00,
2013-06-15 19:01:00,65.4,44.0,29.87,North,9,3.0,9.0,47,0.00,,,0.01,weatherlink.com 1.10,2013-06-15 23:01:00,
2013-06-15 19:16:00,63.4,48.0,29.87,North,350,2.0,4.0,57,0.00,,,0.01,weatherlink.com 1.10,2013-06-15 23:16:00,
2013-06-15 19:31:00,60.7,47.0,29.87,West,264,2.0,6.0,62,0.00,,,0.01,weatherlink.com 1.10,2013-06-15 23:31:00,
2013-06-15 19:46:00,58.4,48.0,29.88,NNE,27,0.0,3.0,68,0.00,,,0.01,weatherlink.com 1.10,2013-06-15 23:46:00,
2013-06-15 20:01:00,57.0,48.0,29.88,NNE,28,1.0,4.0,71,0.00,,,0.01,weatherlink.com 1.10,2013-06-16 00:01:00,
2013-06-15 20:16:00,57.4,48.0,29.88,NE,50,3.0,7.0,70,0.00,,,0.01,weatherlink.com 1.10,2013-06-16 00:16:00,
2013-06-15 20:31:00,58.6,45.0,29.89,NE,48,2.0,6.0,61,0.00,,,0.01,weatherlink.com 1.10,2013-06-16 00:31:00,
2013-06-15 20:46:00,58.0,45.0,29.88,NNE,32,1.0,2.0,63,0.00,,,0.01,weatherlink.com 1.10,2013-06-16 00:46:00,
2013-06-15 21:01:00,56.3,44.0,29.88,NNE,33,0.0,3.0,64,0.00,,,0.01,weatherlink.com 1.10,2013-06-16 01:01:00,
2013-06-15 21:16:00,55.8,44.0,29.89,NE,34,1.0,2.0,64,0.00,,,0.01,weatherlink.com 1.10,2013-06-16 01:16:00,
2013-06-15 21:31:00,56.5,45.0,29.89,ENE,77,2.0,5.0,65,0.00,,,0.01,weatherlink.com 1.10,2013-06-16 01:31:00,
2013-06-15 21:46:00,56.3,43.0,29.90,ENE,69,3.0,4.0,62,0.00,,,0.01,weatherlink.com 1.10,2013-06-16 01:46:00,
2013-06-15 22:01:00,56.2,43.0,29.91,NE,36,4.0,5.0,62,0.00,,,0.01,weatherlink.com 1.10,2013-06-16 02:01:00,
2013-06-15 22:16:00,56.1,44.0,29.91,NE,38,2.0,5.0,65,0.00,,,0.01,weatherlink.com 1.10,2013-06-16 02:16:00,
2013-06-15 22:31:00,55.7,44.0,29.91,East,94,5.0,5.0,66,0.00,,,0.01,weatherlink.com 1.10,2013-06-16 02:31:00,
2013-06-15 22:46:00,54.0,45.0,29.91,ENE,75,1.0,3.0,72,0.00,,,0.01,weatherlink.com 1.10,2013-06-16 02:46:00,
2013-06-15 23:01:00,51.3,44.0,29.91,ENE,75,0.0,2.0,77,0.00,,,0.01,weatherlink.com 1.10,2013-06-16 03:01:00,
2013-06-15 23:16:00,50.0,44.0,29.91,ENE,75,0.0,1.0,80,0.00,,,0.01,weatherlink.com 1.10,2013-06-16 03:16:00,
2013-06-15 23:31:00,49.3,44.0,29.91,ENE,75,1.0,3.0,82,0.00,,,0.01,weatherlink.com 1.10,2013-06-16 03:31:00,
2013-06-15 23:46:00,48.5,44.0,29.91,ENE,75,0.0,0.0,83,0.00,,,0.01,weatherlink.com 1.10,2013-06-16 03:46:00,